Regional Weather Roundup
Issued by NWS

Home | Current Version | Previous Version | Text Only | Print | Product List | Glossary On
Versions: 1 2 3 4 5 6 7 8 9 10 11 12 13 14 15 16 17 18 19 20 21 22 23 24 25 26 27 28
000
ASUS45 KREV 210310
RWRNV
NEVADA REGIONAL WEATHER ROUNDUP
NATIONAL WEATHER SERVICE RENO NV
700 PM PST MON FEB 20 2017

NOTE: "FAIR" INDICATES FEW OR NO CLOUDS BELOW 12,000 FEET WITH NO
SIGNIFICANT WEATHER AND/OR OBSTRUCTIONS TO VISIBILITY.

NVZ001-003-004-210400-
WESTERN NEVADA

CITY           SKY/WX    TMP DP  RH WIND       PRES   REMARKS
RENO           LGT RAIN  39  36  89 CALM      29.87F
CARSON CITY    RAIN      37  36  93 CALM      29.89F
MINDEN         LGT RAIN  37  37 100 NW8       29.87F
PYRAMID LAKE     N/A     41 N/A N/A S17         N/A
FALLON         CLOUDY    43  40  89 NE6       29.88F
LOVELOCK       LGT RAIN  42  41  96 CALM      29.89S
HAWTHORNE      MOCLDY    54  28  37 S30G40    29.89F
$$

NVZ002-CAZ072-073-210400-
NORTHERN AND CENTRAL SIERRA

CITY           SKY/WX    TMP DP  RH WIND       PRES   REMARKS
S. LAKE TAHOE  LGT RAIN  37  34  89 S13G21    29.84F FOG
TRUCKEE        RAIN      34  32  93 S6        29.84F
SQUAW VLY 8000   N/A     32  32 100 S22         N/A
SUSANVILLE     LGT RAIN  39  37  93 E13G21    29.81F
MAMMOTH LAKES  CLOUDY    39  23  53 SW8G32    30.08F
BRIDGEPORT     LGT SNOW  37  30  75 SW13G32   29.91R
$$

NVZ030-031-036-210400-
NORTHERN NEVADA

CITY           SKY/WX    TMP DP  RH WIND       PRES   REMARKS
ELKO           LGT RAIN  40  38  93 E3        29.95S
WINNEMUCCA     LGT RAIN  41  41 100 S13       29.88F
WENDOVER       MOCLDY    50  36  57 S9        29.94F
$$

NVZ035-037-210400-
CENTRAL NEVADA

CITY           SKY/WX    TMP DP  RH WIND       PRES   REMARKS
ELY            MOCLDY    42  36  79 S10       30.07S
EUREKA           N/A     46  32  58 S22       29.97S
$$

NVZ013-014-210400-
SOUTH CENTRAL NEVADA

CITY           SKY/WX    TMP DP  RH WIND       PRES   REMARKS
TONOPAH        CLEAR     44  38  79 S21G30    30.08F
$$

NVZ017-020-022-210400-
SOUTHERN NEVADA

CITY           SKY/WX    TMP DP  RH WIND       PRES   REMARKS
LAS VEGAS      MOCLDY    62  45  53 E5        30.17R
N. LAS VEGAS   CLOUDY    59  48  67 E5        30.18R
NELLIS AFB     MOCLDY    61  48  62 SE21G29   30.18R
HENDERSON      CLOUDY    60  47  61 S13       30.21R
MERCURY        MOCLDY    58  44  60 S25G36    30.14F
$$




USA.gov is the U.S. government's official web portal to all federal, state and local government web resources and services.